Tracking 32412 objects as of 6-Dec-2025
HD Live streaming from Space Station
objects crossing your sky now

STARLINK-4214

Track STARLINK-4214 now!
10-day predictions
STARLINK-4214 is classified as:


NORAD ID: 52877
Int'l Code: 2022-062AZ
Perigee: 545.8 km
Apogee: 547.9 km
Inclination: 53.2 °
Period: 95.4 minutes
Semi major axis: 6917 km
RCS: Unknown
Launch date: June 17, 2022
Source: United States (US)
Launch site: AIR FORCE EASTERN TEST RANGE (AFETR)
Your satellite tracking list
Your tracking list is empty




NASA's NSSDC Master Catalog

Two Line Element Set (TLE):
1 52877U 22062AZ  25340.26144795  .00000045  00000-0  20897-4 0  9992
2 52877  53.2192  73.5457 0001504  77.1040 283.0120 15.08840197191968
Source of the keplerian elements: AFSPC